Overview Statistics Trail Chart Weather Telemetry Raw packets
 

This is the latest recevied weather packets stored in our database for station/object E24QND-2. If no packets are shown the sender has not sent any weather packets the latest 10 day(s).

<< 17 18 19 20 21 22 23 >>
Time Temp. Humidity Pressure Rain* Wind** Luminosity Snow
1788139894 26.67° C 99% - - - 0 W/m² -
1788138670 26.67° C 1% - - - 0 W/m² -
1788137445 26.67° C 99% - - - 0 W/m² -
1788136220 26.11° C 76% - - - 0 W/m² -
1788134996 25.56° C 3% - - - 0 W/m² -
1788133771 25.56° C 1% - - - 0 W/m² -
1788133707 25.56° C 1% - - - 0 W/m² -
1788132482 25.56° C 1% - - - 0 W/m² -
1788131259 25° C 1% - - - 0 W/m² -
1788130033 25° C 99% - - - 0 W/m² -
1788128808 25° C 99% - - - 0 W/m² -
1788127584 25° C 1% - - - 0 W/m² -
1788126359 25° C 99% - - - 0 W/m² -
1788125135 25° C 1% - - - 0 W/m² -
1788123910 25° C 1% - - - 0 W/m² -
1788122686 25.56° C 1% - - - 0 W/m² -
1788121461 25.56° C 1% - - - 0 W/m² -
1788120237 25.56° C 1% - - - 0 W/m² -
1788119012 25.56° C 1% - - - 0 W/m² -
1788117789 25.56° C 99% - - - 0 W/m² -
1788116563 26.11° C 99% - - - 0 W/m² -
1788115339 26.11° C 65% - - - 0 W/m² -
1788114114 26.11° C 1% - - - 0 W/m² -
1788112889 26.11° C 1% - - - 0 W/m² -
1788111665 26.67° C 99% - - - 0 W/m² -

* Rain since midnight (hover to see other rain measurements)
** Current wind speed in m/s (hover to see current wind gust speed)